Regional Weather Roundup
Issued by NWS

Home | Current Version | Previous Version | Graphics & Text | Print | Product List | Glossary On
Versions: 1 2 3 4 5 6 7 8 9 10 11 12 13 14 15 16 17 18 19 20 21 22 23 24 25 26 27 28 29 30 31 32 33 34 35 36 37 38 39 40 41 42 43 44 45 46 47 48 49 50
976
ASUS43 KLMK 281702
RWRKY
KENTUCKY REGIONAL WEATHER ROUNDUP
NATIONAL WEATHER SERVICE LOUISVILLE KY
100 PM EDT WED SEP 28 2016

NOTE "FAIR" INDICATES FEW OR NO CLOUDS BELOW 12,000 FEET
WITH NO SIGNIFICANT WEATHER AND/OR OBSTRUCTIONS TO VISIBILITY.

KYZ001>023-026-027-061>063-070>075-281800-
WESTERN AND SOUTH CENTRAL KENTUCKY

CITY           SKY/WX    TMP DP  RH WIND       PRES   REMARKS
PADUCAH        PTSUNNY   72  53  51 W7        29.86R
HENDERSON      CLOUDY    63  54  72 NW5       29.84R
OWENSBORO      NOT AVBL
HOPKINSVILLE   SUNNY     78  54  43 SW20G29   29.84F
BOWLING GREEN  CLOUDY    80  50  34 SW22G31   29.83F
GLASGOW        NOT AVBL
$$

KYZ024-025-028>034-038-045-046-053-281800-
NORTH CENTRAL KENTUCKY

CITY           SKY/WX    TMP DP  RH WIND       PRES   REMARKS
LOUISVILLE/SDF LGT RAIN  64  55  72 NW7       29.85R
LOUISVILLE/LOU LGT RAIN  63  57  81 NW6       29.86R
FORT KNOX      PTSUNNY   67  51  56 W8        29.82R
$$

KYZ035>037-039>044-047>052-055>060-089>105-281800-
NORTHEAST KENTUCKY

CITY           SKY/WX    TMP DP  RH WIND       PRES   REMARKS
LEXINGTON      MOSUNNY   75  49  39 S16G25    29.83F
COVINGTON      CLOUDY    62  54  74 SE14      29.83S
FRANKFORT      CLOUDY    70  49  47 W8G20     29.84R
$$

KYZ054-064>069-076>088-106>120-281800-
SOUTHEAST KENTUCKY

CITY           SKY/WX    TMP DP  RH WIND       PRES   REMARKS
JACKSON        SUNNY     75  49  39 VRB6      29.90F
LONDON         SUNNY     75  43  31 SW12G22   29.91F
SOMERSET       SUNNY     73  46  38 SW7G18    29.90F
MIDDLESBORO    SUNNY     75  47  37 S9        29.95F
MONTICELLO     SUNNY     77  48  35 S10G29    29.91F
$$





USA.gov is the U.S. government's official web portal to all federal, state and local government web resources and services.